Location: Elkol
(41.7238°N, 110.6124°W)
Time: 00:39:53
(UTC+00:00)

X-37B - Visible Passes

Search period start: 11 June 2023 00:00
Search period end: 21 June 2023 00:00
Orbit: 277 x 277 km, 45.0° (Epoch: 01 November)

Date Brightness Start Highest point End Pass type
(mag) Time Alt. Az. Time Alt. Az. Time Alt. Az.
11 Jun 2.0 09:44:27 20° ESE 09:44:27 20° ESE 09:45:42 10° E visible
12 Jun 1.1 09:44:49 35° ESE 09:44:49 35° ESE 09:46:34 10° E visible
13 Jun 0.2 09:45:11 62° E 09:45:11 62° E 09:47:19 10° ENE visible
14 Jun 0.2 09:45:32 61° NNW 09:45:33 61° NNW 09:47:59 10° ENE visible
15 Jun 0.9 09:45:54 39° NW 09:46:17 43° N 09:48:40 10° ENE visible
16 Jun 1.4 09:46:18 28° NW 09:47:03 36° N 09:49:22 10° ENE visible
17 Jun 1.6 09:46:46 22° NW 09:47:49 34° N 09:50:07 10° ENE visible
18 Jun 1.5 09:47:22 21° NW 09:48:35 36° N 09:50:55 10° ENE visible
19 Jun 1.1 09:48:11 23° NW 09:49:21 44° N 09:51:44 10° E visible
20 Jun 0.3 09:49:26 40° NW 09:50:06 62° NNE 09:52:32 10° E visible
